GEFSCGP_con_maxscp_312.txt.gz
SCP
0 0 0 0 0 0 0 0 0 0 0 0 0 1 1 1 1 2 2 2 3 4 4 4 3 3 3 3 4 3 3 3 3 4 4 3 3 3 3 3 3 3 3 3
0 0 0 0 0 0 0 0 0 0 0 0 1 1 1 1 2 2 2 2 3 4 4 4 4 4 4 4 4 4 3 3 4 4 4 3 3 3 3 3 3 3 3 3
0 0 0 0 0 0 0 0 0 0 0 0 1 2 2 2 3 3 3 3 3 4 5 5 5 5 5 5 4 4 4 4 4 4 4 3 3 3 3 3 3 3 3 3
0 0 0 0 0 0 0 0 0 0 0 0 1 2 3 4 4 3 4 4 4 5 6 5 5 5 5 5 4 4 4 4 4 3 3 3 3 3 3 3 4 4 3 3
0 0 0 0 0 0 0 0 0 0 0 0 1 1 3 4 4 4 5 6 6 6 5 5 4 4 4 4 4 4 4 4 4 3 3 3 3 2 3 4 4 4 4 3
0 0 0 0 0 0 0 0 0 0 0 0 1 1 2 3 4 4 5 7 6 5 4 4 3 4 4 4 4 4 5 5 4 4 3 3 3 3 3 4 5 5 4 4
0 0 0 0 0 0 0 0 0 0 0 0 1 1 3 4 4 3 4 5 5 4 4 3 3 4 4 4 5 5 6 6 5 5 4 4 4 4 4 5 5 5 5 5
0 0 0 0 0 0 0 0 0 0 0 0 1 2 3 3 3 2 2 3 4 4 4 3 4 4 5 5 6 7 8 8 6 6 5 5 5 5 5 6 6 5 5 5
0 0 0 0 0 0 0 0 0 0 0 0 1 1 2 2 1 1 2 3 5 6 6 6 6 6 6 6 7 8 10 9 8 7 6 7 7 6 6 7 7 6 6 5
0 0 0 0 0 0 0 0 0 0 0 0 1 1 1 1 1 1 3 5 7 8 9 9 8 7 7 7 7 10 12 12 10 9 8 8 8 8 8 8 9 8 7 7
1 1 0 0 1 1 0 0 0 0 0 0 1 1 1 2 2 4 6 8 8 8 8 7 6 5 6 6 8 12 14 15 13 11 10 9 9 9 9 9 10 10 9 9
1 1 1 1 0 0 0 0 0 0 0 0 1 1 2 3 4 6 8 8 7 7 6 5 4 4 4 7 10 13 16 17 15 12 11 11 10 9 9 10 12 12 11 11
0 1 1 1 0 0 0 0 0 0 0 0 1 2 3 4 5 6 6 5 6 6 6 6 6 5 5 8 12 15 18 19 18 15 13 12 11 9 9 11 12 13 12 11
0 0 1 0 0 0 0 0 0 0 0 0 1 3 4 4 4 4 4 4 5 6 7 7 7 6 6 9 14 18 21 22 21 18 15 14 12 11 10 10 12 12 12 11
0 0 0 0 0 0 0 0 0 0 0 1 1 3 4 5 5 4 4 5 6 7 8 9 9 9 8 10 16 22 25 25 22 18 15 15 15 13 12 10 10 10 10 9
0 0 0 0 0 0 0 0 0 0 0 1 2 3 4 6 7 6 6 6 6 6 8 10 12 12 11 13 19 26 28 26 22 17 14 15 16 16 14 11 9 8 8 8
0 1 1 0 0 0 0 0 0 0 0 1 2 3 3 5 6 5 5 6 6 6 7 10 14 17 16 17 21 26 26 23 19 15 13 13 15 16 15 12 9 7 8 8
1 1 1 1 1 0 0 0 0 0 0 1 2 3 3 5 5 4 4 4 4 5 6 9 15 19 19 19 21 22 20 17 15 13 11 11 13 15 15 13 10 9 10 11
1 1 1 1 1 1 0 0 0 0 1 1 2 3 3 4 5 5 5 5 5 6 8 11 14 17 19 19 19 17 15 13 11 10 10 10 11 13 15 15 14 14 15 16
1 1 1 1 1 0 0 0 0 1 1 2 3 3 3 4 5 6 6 6 7 9 12 15 15 14 17 18 17 15 13 13 11 11 12 13 14 15 18 19 19 19 20 20
1 1 1 1 1 1 0 1 1 1 2 3 4 4 4 5 5 6 6 7 9 12 16 18 18 17 18 18 17 15 13 14 14 15 16 17 18 19 20 21 20 19 18 18
1 1 1 1 1 1 1 1 1 2 3 4 5 6 6 6 7 7 7 9 12 17 19 19 19 21 21 19 17 16 15 16 19 20 20 20 20 18 18 18 16 15 15 15
1 1 1 2 1 1 2 2 2 2 3 3 4 5 6 6 7 7 9 12 17 19 18 16 16 19 20 19 18 17 18 19 21 22 21 19 18 16 16 16 15 14 13 13
2 1 1 2 2 2 2 2 2 2 3 2 2 3 5 6 6 7 11 15 16 15 14 12 11 13 15 17 17 16 17 18 19 19 18 16 15 15 16 17 16 14 12 12
3 3 2 2 3 3 3 3 2 2 2 2 2 3 5 5 5 8 12 13 13 11 10 9 9 11 13 15 16 15 13 14 15 16 15 13 12 14 16 16 14 11 10 9
4 4 4 3 3 4 4 3 3 2 2 2 2 4 5 5 6 8 11 12 11 9 8 8 9 11 12 14 15 14 12 11 13 14 13 11 11 14 15 14 11 8 6 5

GEFSCGP_con_maxscp_318.txt.gz
SCP
0 0 0 0 0 0 0 0 0 0 0 0 1 2 2 2 2 2 2 3 4 5 4 4 4 4 3 2 2 2 2 2 1 1 1 1 1 1 1 1 1 1 2 2
0 0 0 0 0 0 0 0 0 0 0 0 1 2 2 2 2 2 2 3 5 6 5 5 5 4 4 3 3 3 2 2 1 1 1 1 1 1 1 1 1 2 2 2
0 0 0 0 0 0 0 0 0 0 0 0 1 1 1 1 2 2 2 4 6 8 7 6 6 6 6 5 4 3 3 2 2 1 1 1 1 1 1 1 1 1 2 2
0 0 0 0 0 0 0 0 0 0 0 0 0 0 1 1 2 3 3 4 8 9 8 6 6 7 6 5 3 3 2 2 2 2 2 1 1 1 1 1 1 1 2 2
0 0 0 0 0 0 0 0 0 0 0 0 0 0 1 2 3 3 3 5 7 8 7 5 5 5 4 3 3 3 3 2 2 2 2 2 1 1 1 1 1 1 1 2
0 0 0 0 0 0 0 0 0 0 0 0 0 0 1 2 3 3 3 4 5 6 5 5 4 4 3 3 3 3 3 3 3 3 2 2 2 1 1 1 1 1 1 2
0 0 0 0 0 0 0 0 0 0 0 0 0 0 0 1 2 2 2 3 4 5 5 5 4 4 4 4 4 4 4 4 4 4 3 2 2 2 2 1 1 2 2 2
0 0 0 0 0 0 0 0 0 0 0 0 0 0 0 1 2 2 2 3 4 5 6 5 5 4 5 4 5 6 6 5 5 5 4 2 2 2 2 2 2 2 2 2
0 0 0 0 0 0 0 0 0 0 0 0 0 0 1 1 2 2 2 3 4 5 6 5 3 3 4 4 5 7 8 7 6 6 4 3 2 2 3 3 3 3 3 3
0 0 0 0 0 0 0 0 0 0 0 0 0 0 1 1 2 2 2 3 5 6 6 4 2 2 3 4 6 9 10 8 8 7 5 3 3 4 4 4 3 3 3 3
0 0 0 0 0 0 0 0 0 0 0 0 0 0 1 1 1 2 3 4 6 6 6 4 2 2 2 3 6 9 11 10 9 8 6 6 7 7 6 4 3 2 3 3
0 0 0 0 0 0 0 0 0 0 0 0 0 0 1 1 1 2 3 5 7 7 5 4 3 3 3 3 6 9 11 10 9 8 7 8 10 10 8 5 3 3 3 2
0 0 0 0 0 0 0 0 0 0 0 0 0 1 1 1 2 2 3 5 7 6 5 4 4 4 3 3 5 8 10 10 9 9 9 8 9 9 7 5 4 3 3 2
0 0 0 0 0 0 0 0 0 0 0 0 1 2 2 2 2 2 3 5 6 5 5 5 5 5 4 4 5 7 8 9 10 10 9 8 8 8 6 4 3 3 3 2
0 0 0 0 0 0 0 0 0 0 0 1 1 3 3 2 2 3 3 4 5 5 6 6 6 5 4 4 5 5 7 9 11 11 10 10 10 9 6 4 3 2 2 2
0 1 1 1 1 0 0 0 0 0 1 1 2 3 3 2 3 3 4 4 5 6 6 6 5 5 4 5 5 6 8 11 13 13 12 11 11 9 7 5 4 3 3 2
0 1 1 1 1 0 0 0 0 0 1 2 2 2 2 2 3 4 4 5 6 6 6 5 4 4 4 5 6 9 13 16 17 15 14 13 12 10 8 6 5 4 3 3
0 0 1 1 1 1 0 0 0 1 1 1 2 2 3 3 4 5 5 6 6 6 6 5 5 6 6 6 8 12 17 20 20 18 15 14 12 10 8 6 5 5 4 4
0 0 1 1 1 1 0 0 0 1 1 1 3 3 3 5 6 6 6 6 7 6 5 5 8 11 11 10 11 14 18 20 20 19 16 14 12 10 8 7 5 5 5 5
0 0 0 1 1 1 0 0 0 1 1 2 3 4 4 5 6 6 7 7 6 6 5 7 12 16 15 14 14 14 15 17 18 16 14 13 11 10 8 7 7 6 6 6
0 0 0 1 1 1 1 1 0 0 1 2 3 4 4 5 6 6 7 7 6 5 5 8 15 18 16 14 14 14 13 14 14 13 12 11 11 11 9 9 9 9 8 8
0 0 1 1 1 2 3 2 1 1 1 2 3 4 5 6 6 6 6 7 6 6 5 8 15 19 18 15 13 13 12 12 12 11 10 10 11 12 11 11 12 12 10 9
1 1 1 1 1 2 3 3 2 2 2 2 3 4 6 7 7 6 7 7 7 6 5 8 14 20 19 16 13 12 12 11 10 8 8 9 10 11 11 11 12 12 11 11
1 1 1 1 1 1 2 3 5 4 3 3 4 5 6 7 7 7 7 6 6 5 5 7 13 19 19 16 13 12 11 10 8 7 7 9 10 10 9 9 9 10 11 11
1 1 2 2 1 1 1 3 6 6 5 4 5 6 6 6 7 7 6 5 4 5 6 9 14 17 16 14 13 12 11 10 8 7 7 8 8 7 6 5 6 7 8 9
1 1 2 2 1 1 1 3 5 6 5 5 6 6 6 6 7 6 5 3 3 5 8 11 14 15 15 14 12 11 10 10 9 8 7 7 6 5 4 4 4 5 6 6

GEFSCGP_con_maxscp_324.txt.gz
SCP
0 0 0 0 0 0 0 0 0 0 0 1 1 1 1 1 1 1 1 1 1 1 1 1 0 0 1 1 1 1 1 1 1 1 1 1 1 1 1 1 1 1 1 1
0 0 0 0 0 0 0 0 0 0 0 1 1 1 1 1 1 1 1 1 2 2 1 1 1 1 1 2 2 2 1 1 1 1 1 1 1 1 1 1 1 1 1 1
0 0 0 0 0 0 0 0 0 0 1 1 1 1 1 1 1 1 1 1 2 2 1 1 2 2 3 3 2 2 1 1 1 1 1 1 1 1 1 1 1 1 1 1
0 0 0 0 0 0 0 0 0 0 0 0 0 0 0 0 1 1 1 2 2 2 2 2 3 4 4 3 2 1 1 1 1 1 1 1 1 1 1 1 1 1 1 1
0 0 0 0 0 0 0 0 0 0 0 0 0 0 0 0 1 1 1 1 1 1 2 3 4 4 3 3 2 1 1 1 1 1 1 1 1 1 1 1 1 1 1 1
0 0 0 0 0 0 0 0 0 0 0 0 0 0 0 0 0 0 1 1 1 1 2 3 3 3 3 3 2 1 1 1 1 1 2 2 2 1 2 2 2 1 1 1
0 0 0 0 0 0 0 0 0 0 0 0 0 0 0 0 1 1 1 1 1 1 2 3 3 3 3 3 2 1 1 1 1 2 2 2 2 2 2 2 3 2 2 2
0 0 0 0 0 0 0 0 0 0 0 0 0 0 0 0 1 1 2 1 1 1 2 3 3 2 2 2 2 1 1 2 2 2 2 3 3 4 3 3 3 4 3 2
0 0 0 0 0 0 0 0 0 0 0 0 0 0 0 1 1 2 2 2 1 2 2 2 2 2 2 2 1 1 1 2 2 3 3 4 4 5 4 4 5 4 3 2
0 0 0 0 0 0 0 0 0 0 0 0 0 0 1 1 1 2 2 1 1 2 2 2 2 2 2 2 2 2 1 2 2 3 3 4 4 5 5 5 5 4 2 1
0 0 0 0 0 0 0 0 0 0 0 0 0 0 1 1 1 1 1 1 2 3 4 4 3 3 2 2 2 2 2 2 2 2 3 4 4 4 4 3 3 2 1 1
0 0 0 0 0 0 0 0 0 0 0 0 0 0 0 1 1 1 2 2 3 4 5 5 4 3 3 3 3 3 3 3 2 3 3 4 4 3 3 2 2 2 2 1
0 0 0 0 0 0 0 0 0 0 0 0 0 0 0 1 2 2 3 3 4 4 5 5 4 4 3 3 3 3 3 3 3 3 4 4 4 3 3 2 2 2 2 2
0 0 0 0 0 0 0 0 0 0 0 0 0 0 0 1 2 3 3 3 4 4 4 4 4 4 4 4 4 4 3 3 4 5 5 6 6 5 4 3 3 3 2 2
0 0 0 0 0 0 0 0 0 0 0 0 0 0 0 1 2 3 3 3 3 3 3 3 4 4 4 4 4 4 4 4 5 6 7 8 8 7 5 4 3 3 3 2
0 0 0 0 0 0 1 0 0 0 0 0 0 0 0 1 2 2 3 3 3 3 3 4 4 5 5 4 4 3 3 4 5 6 7 8 8 7 6 4 4 4 4 3
0 0 0 0 0 0 0 0 0 0 0 0 0 0 1 1 1 2 2 3 3 3 3 4 4 4 4 4 3 2 3 3 4 5 6 8 8 7 6 5 4 4 4 4
0 0 0 0 0 0 0 0 0 0 0 0 0 0 1 2 2 2 2 3 3 3 4 4 4 4 3 3 2 2 2 2 3 5 6 8 8 7 5 5 5 5 4 4
0 0 0 0 0 0 0 0 0 0 0 0 0 1 2 4 4 4 3 3 4 4 4 3 3 3 2 2 2 2 2 3 4 5 7 8 8 7 6 5 5 5 5 5
0 0 0 0 0 0 0 0 0 0 0 0 1 2 3 4 5 4 4 4 4 4 4 3 2 2 2 2 2 2 3 4 5 7 8 8 8 8 7 6 5 5 6 6
0 0 0 1 1 0 0 0 0 0 0 1 1 3 4 4 5 5 5 5 4 3 3 2 2 2 2 2 2 2 3 5 6 8 9 9 9 9 8 7 5 5 6 6
0 0 0 1 1 0 0 0 0 0 1 1 2 4 6 6 6 5 5 4 3 3 2 2 2 2 3 3 3 3 3 5 7 9 9 9 8 8 7 6 6 6 6 6
0 0 0 0 0 0 0 0 0 1 1 2 3 6 7 7 6 5 4 3 2 2 1 1 2 3 3 4 4 4 4 5 7 8 9 9 8 7 7 6 6 6 6 6
0 0 0 0 0 0 0 0 1 1 2 3 5 6 7 6 5 4 3 3 2 2 1 2 2 3 3 4 5 5 5 5 6 8 9 9 9 8 8 7 7 7 7 6
0 0 0 0 0 0 1 1 2 3 4 5 5 5 5 4 3 3 2 2 2 2 2 2 2 2 3 3 4 4 4 5 6 7 8 10 10 9 9 8 8 7 6 4
0 0 1 1 0 0 1 1 3 4 5 5 5 4 3 2 2 2 2 2 2 2 2 2 2 2 3 3 4 4 4 5 6 7 8 9 10 9 9 9 8 6 4 3

GEFSCGP_con_maxscp_330.txt.gz
SCP
0 0 0 0 0 0 0 0 0 1 0 1 1 2 2 2 2 2 2 1 1 1 1 1 1 1 2 2 2 1 1 1 2 2 2 1 1 1 1 1 1 1 1 1
0 0 0 0 0 0 0 0 0 0 0 1 1 2 2 2 2 2 2 1 1 1 1 1 1 2 2 2 2 2 2 2 2 2 2 2 1 1 1 1 1 1 1 1
0 0 0 0 0 0 0 0 0 0 0 1 1 1 2 2 2 1 1 1 1 1 1 1 2 2 2 2 3 3 2 2 2 2 2 2 2 1 1 1 1 1 1 1
0 0 0 0 0 0 0 0 0 0 0 0 0 1 1 1 1 1 1 1 1 1 1 1 1 2 2 2 3 3 3 3 3 3 3 2 2 2 2 2 2 2 2 2
0 0 0 0 0 0 0 0 0 0 0 0 0 0 1 1 1 1 1 1 1 1 1 1 1 1 2 3 3 3 4 4 4 3 3 3 3 2 3 3 3 3 3 3
0 0 0 0 0 0 0 0 0 0 0 0 0 0 1 1 1 1 2 2 1 1 1 1 1 2 3 3 3 3 4 4 4 3 3 3 2 2 3 3 4 4 4 5
1 1 1 0 0 0 0 0 0 0 0 0 0 0 1 1 1 2 2 2 2 1 1 1 1 2 3 4 3 3 4 4 4 3 2 2 2 2 3 3 3 3 4 5
1 1 1 1 1 0 0 0 0 0 0 0 0 1 1 1 2 2 2 2 2 2 1 1 2 3 3 3 3 3 4 4 3 2 2 2 2 2 3 3 4 4 4 5
1 1 1 1 1 1 0 0 0 0 0 0 0 1 1 1 2 2 2 2 2 2 1 1 2 2 3 2 2 3 3 3 3 2 2 2 2 2 3 3 4 5 5 5
0 1 1 1 1 1 1 1 0 0 0 0 0 1 1 2 2 2 2 2 2 2 1 1 2 2 2 2 3 3 3 3 3 3 3 2 2 2 2 3 3 4 5 5
0 0 1 1 1 1 1 1 1 0 0 0 0 1 1 2 2 2 2 2 2 2 2 2 2 2 2 3 3 3 3 3 3 3 3 3 3 2 2 2 2 3 3 3
0 0 1 1 1 1 1 1 1 1 1 0 0 1 1 2 2 2 2 2 2 2 2 2 2 3 3 4 4 4 3 3 3 3 3 3 3 3 3 3 3 3 3 3
0 0 0 1 1 1 1 1 0 1 1 1 0 0 1 2 2 2 2 2 2 3 3 3 3 3 4 5 5 5 4 3 3 3 3 4 4 4 4 4 4 4 4 3
0 0 0 0 0 0 0 0 0 0 0 0 0 0 1 1 2 2 2 2 3 3 4 4 4 4 4 5 6 5 4 4 4 4 4 4 4 5 5 5 5 5 5 4
0 0 0 0 0 0 0 0 0 0 0 0 0 0 1 1 1 2 2 3 3 4 5 5 4 4 4 6 6 5 4 4 5 5 5 5 5 6 6 6 7 7 6 6
0 0 0 0 0 0 0 0 0 0 0 0 0 0 1 1 1 2 3 3 4 5 6 6 5 5 5 6 6 5 4 4 5 5 5 6 6 7 7 7 8 8 7 7
0 0 0 0 0 0 0 0 0 0 0 0 0 1 1 1 1 2 3 4 4 5 6 6 6 5 5 5 5 4 4 4 5 5 6 6 7 7 8 8 8 9 9 8
1 1 0 0 0 0 0 0 0 0 0 0 0 1 1 1 1 2 3 5 5 5 5 6 6 5 4 4 4 4 4 5 6 7 8 8 7 8 9 9 9 10 11 11
1 1 1 0 0 0 0 0 0 0 0 0 1 1 1 1 2 3 5 6 5 5 5 6 6 4 3 3 3 4 5 6 8 9 10 9 8 7 8 9 10 11 12 12
1 1 1 0 0 0 0 0 0 0 0 1 1 1 1 1 3 6 8 7 6 5 6 6 5 4 3 3 4 5 6 8 9 10 10 8 7 6 7 8 9 10 10 10
1 1 1 1 1 0 0 0 0 1 1 1 1 2 2 3 5 8 9 8 6 7 7 6 5 4 4 4 5 6 8 8 8 7 7 6 5 5 5 7 8 8 8 8
1 1 1 1 1 1 1 1 1 1 1 1 1 2 3 5 7 8 8 7 7 8 8 7 6 6 5 5 6 7 8 8 7 6 6 5 5 4 5 6 7 8 9 9
1 1 1 1 1 1 1 1 1 2 2 2 2 3 5 6 7 7 6 6 7 7 7 7 7 7 7 7 7 7 8 7 7 7 6 5 5 5 6 8 9 9 10 10
1 1 1 1 1 1 1 1 1 1 2 2 4 5 5 6 6 6 6 6 6 6 6 6 6 7 8 7 7 7 7 6 6 7 6 5 5 5 8 10 10 8 9 10
1 1 1 1 2 2 2 2 1 2 3 4 5 6 6 5 6 6 7 7 6 5 4 4 5 6 7 7 6 6 6 6 6 7 7 6 5 5 8 10 8 6 6 6
1 1 1 2 2 3 3 2 2 3 5 6 6 6 5 5 6 6 7 7 6 4 3 3 4 5 6 6 6 7 7 7 7 7 7 6 5 6 7 8 6 4 3 3

GEFSCGP_con_maxscp_336.txt.gz
SCP
0 0 0 0 0 0 0 0 0 0 0 1 1 1 2 2 2 2 2 2 2 2 2 2 2 2 2 3 4 4 4 4 4 3 3 3 3 3 2 2 3 4 4 4
0 0 0 0 0 0 0 0 0 0 0 1 1 1 2 2 2 2 2 2 2 2 2 2 2 2 2 3 4 5 4 4 4 4 3 3 3 3 3 2 3 4 5 5
0 0 0 0 0 0 0 0 0 0 0 0 1 1 1 2 2 2 2 2 2 2 3 3 2 2 2 3 4 5 5 5 5 5 4 4 3 3 3 3 3 5 5 5
0 0 0 0 0 0 0 0 0 0 0 0 1 1 2 2 2 2 2 2 2 2 3 3 2 2 2 3 5 7 7 6 6 6 5 4 4 3 3 3 4 5 6 6
0 0 0 0 0 0 0 0 0 0 0 0 1 1 2 2 3 3 3 3 2 3 3 3 2 2 3 4 7 9 8 7 6 7 6 5 4 4 4 3 4 4 6 6
0 0 0 0 0 0 0 0 0 0 0 0 0 1 2 3 3 3 3 4 4 4 3 3 3 2 3 6 8 8 8 7 7 6 6 6 5 4 4 3 3 4 4 5
0 0 0 0 0 0 0 0 0 0 0 0 0 1 2 3 3 4 5 6 6 5 4 3 3 3 5 6 7 7 7 7 6 6 6 7 6 4 4 4 4 4 4 4
0 0 0 0 0 0 0 0 0 0 0 0 1 2 4 4 5 5 6 7 8 7 5 4 4 5 7 7 6 7 7 7 6 6 6 6 5 4 4 4 4 5 4 4
0 0 0 0 0 0 0 0 0 0 1 1 1 2 5 6 6 6 6 7 8 7 6 5 5 6 8 7 6 7 8 8 6 6 6 5 4 3 4 5 5 5 5 5
0 0 0 0 0 0 0 0 0 0 1 1 1 3 5 7 6 5 5 5 5 5 5 5 6 7 7 6 5 6 8 8 7 7 6 4 3 3 4 5 6 6 5 4
0 0 0 0 0 0 0 0 0 0 0 1 1 2 5 6 4 4 3 3 3 4 4 5 6 7 7 6 6 6 8 8 8 7 6 4 3 3 4 5 5 6 5 4
0 0 0 0 0 0 0 0 0 0 1 1 1 2 4 4 3 3 4 3 3 3 4 5 5 6 6 7 7 7 8 8 8 7 6 5 4 3 4 4 5 5 5 5
1 1 1 0 0 0 0 0 0 1 1 1 1 1 2 3 3 3 4 4 4 4 4 4 5 5 6 7 8 8 9 9 8 7 7 6 4 4 4 4 4 5 5 5
1 1 1 0 0 0 0 0 1 1 1 1 1 1 2 2 2 3 4 5 6 5 5 4 5 6 8 9 9 9 9 10 9 8 7 6 6 5 5 5 5 5 5 5
1 1 1 0 0 1 1 1 0 0 0 1 1 1 2 2 2 4 5 7 7 6 5 5 6 8 11 12 10 9 9 9 9 9 7 7 6 6 5 5 5 5 5 5
1 1 1 0 0 0 0 1 1 0 0 1 1 1 1 2 3 5 6 7 7 6 5 5 7 9 12 14 13 10 8 6 7 7 7 6 6 6 5 5 5 6 6 6
1 1 1 0 0 0 1 1 1 1 1 1 1 2 2 2 4 5 6 6 6 6 6 6 7 9 13 16 15 12 8 6 5 6 7 7 7 7 6 6 7 7 8 9
1 1 1 0 0 0 1 1 1 1 2 2 2 2 2 3 4 5 5 6 6 6 6 6 6 8 13 17 16 12 9 7 7 8 10 11 11 10 9 9 10 11 13 14
1 1 1 1 1 1 1 1 1 2 2 3 3 3 3 3 4 5 5 6 6 6 6 6 6 9 14 16 15 12 10 9 9 11 13 14 14 14 13 14 15 17 18 17
0 1 1 1 1 1 1 1 1 2 2 3 3 4 4 4 4 6 7 6 6 6 6 6 7 10 14 15 13 12 11 10 10 12 15 16 17 17 17 18 19 19 17 15
0 1 1 1 1 1 1 1 1 2 2 3 3 4 5 5 5 7 8 7 6 5 5 7 9 11 14 14 13 12 12 12 12 13 15 16 17 17 17 18 18 16 13 11
1 1 1 1 1 2 2 2 2 2 2 2 3 3 5 5 7 9 9 8 7 7 8 9 11 14 18 19 18 17 17 15 14 14 15 15 14 13 13 14 14 13 10 9
1 1 2 2 2 3 3 3 3 2 2 2 2 3 5 7 9 11 10 9 10 12 13 14 15 17 21 24 23 22 21 19 16 14 13 12 10 9 10 11 11 11 10 9
2 2 3 3 3 3 3 2 2 2 2 2 2 3 6 8 10 10 11 12 13 15 17 17 15 15 18 21 22 22 21 17 15 12 10 9 8 7 7 8 8 9 9 9
2 2 3 3 3 2 2 2 2 2 2 2 3 6 8 9 9 10 12 14 14 15 15 14 12 12 15 18 20 20 18 15 13 11 9 7 6 6 5 6 6 6 7 7
2 2 2 2 2 1 1 1 1 1 1 2 4 8 10 9 9 11 14 15 14 13 12 10 10 12 15 19 22 21 18 15 13 11 9 7 7 6 5 5 5 5 5 5

GEFSCGP_con_maxscp_342.txt.gz
SCP
0 0 0 0 0 0 0 0 1 1 1 2 2 2 2 2 2 2 2 2 1 1 2 2 1 1 1 1 1 1 2 2 3 3 2 1 1 1 1 1 1 1 1 2
0 0 0 0 0 0 0 0 1 1 2 2 2 2 2 2 2 2 2 2 2 2 2 2 2 1 1 1 1 2 2 3 3 3 2 2 1 1 1 1 1 1 1 1
0 0 0 0 0 0 0 0 1 2 2 2 1 1 2 3 2 2 2 2 2 2 3 3 2 2 1 1 2 2 3 3 4 4 3 2 2 2 2 2 1 1 1 1
0 0 0 0 0 0 0 0 1 2 2 1 1 1 2 3 3 3 3 3 2 2 2 3 2 2 1 1 2 2 3 3 4 4 3 3 3 3 3 2 2 2 1 1
0 0 0 0 0 0 0 0 1 1 1 1 1 1 1 3 4 5 4 3 2 2 2 3 2 2 1 2 2 2 2 3 4 4 3 3 3 3 2 2 2 2 1 1
0 0 0 0 0 0 0 0 0 0 0 0 0 1 1 3 4 5 5 3 2 2 3 3 2 2 2 2 2 3 3 3 3 3 3 2 2 2 2 2 1 1 1 1
0 0 0 0 0 0 0 0 0 0 0 0 0 1 1 3 4 4 3 2 2 2 4 4 3 3 3 3 3 4 4 3 3 3 3 2 2 2 1 1 1 1 1 1
0 0 0 0 0 0 0 0 0 0 0 0 0 1 2 3 3 3 2 2 2 3 4 4 4 4 4 4 4 4 4 3 3 3 3 2 2 1 1 1 1 1 1 1
0 0 0 0 0 0 0 0 0 0 0 0 1 1 2 3 3 2 2 2 2 3 4 4 5 5 5 5 4 4 3 3 3 3 3 2 2 2 2 1 1 1 1 1
0 0 0 0 0 0 0 0 0 0 0 0 1 2 2 2 2 2 2 2 3 5 5 5 5 5 5 5 4 3 3 3 3 3 3 3 2 2 2 2 2 2 1 1
0 0 0 0 0 0 0 0 0 0 0 0 1 2 2 2 2 2 2 3 5 7 7 6 5 5 5 4 4 3 3 3 3 4 3 3 3 3 2 2 2 2 2 2
0 0 0 0 0 0 0 0 0 0 0 0 1 1 2 2 2 2 3 5 7 9 9 7 6 5 4 4 4 4 4 4 4 4 3 3 3 3 3 2 2 1 1 1
0 0 0 0 0 0 0 0 0 0 0 0 1 1 1 1 1 2 3 6 10 11 11 9 7 5 4 4 4 5 5 5 5 4 3 3 3 4 3 2 1 1 1 1
0 0 0 0 0 0 0 0 0 0 0 1 1 1 1 1 1 2 3 6 10 12 11 9 7 5 4 4 5 6 6 6 6 4 3 3 4 4 3 2 2 2 2 2
0 0 0 0 0 0 0 0 0 0 0 1 1 1 1 1 1 3 5 7 9 10 9 7 5 4 4 5 6 7 8 7 6 4 3 3 3 3 3 3 3 3 3 3
0 0 0 0 0 0 0 0 0 1 1 1 1 1 1 2 3 6 9 9 9 7 6 4 3 4 5 5 6 8 9 7 5 4 3 3 3 3 3 3 3 3 3 3
0 0 0 0 0 0 0 0 1 1 1 1 1 1 1 3 6 10 13 11 8 5 3 3 3 4 5 5 6 9 9 7 4 3 3 3 3 3 3 3 3 3 4 4
0 0 0 0 0 0 0 0 1 1 1 1 1 2 2 4 8 12 14 11 7 4 3 3 4 4 5 5 7 10 9 6 3 3 3 3 3 3 4 4 4 4 5 6
0 0 0 0 0 0 0 0 1 1 1 2 2 2 3 6 9 11 11 10 7 4 3 3 4 5 5 5 8 10 8 5 3 3 4 4 4 5 5 6 6 7 8 8
1 1 0 0 1 0 0 0 1 1 2 2 2 2 4 7 10 10 8 7 6 4 3 4 4 4 5 6 9 9 6 5 4 5 6 6 6 7 8 8 9 10 10 9
1 1 1 1 1 1 0 1 1 1 1 2 2 2 4 6 8 8 6 4 3 4 4 4 4 4 5 7 9 8 6 5 6 7 8 8 8 9 9 10 9 9 9 8
1 1 1 1 1 1 1 1 1 1 1 2 2 2 2 3 5 7 6 4 4 5 6 5 5 5 6 8 8 7 6 6 7 8 9 9 9 9 9 9 8 6 6 5
1 1 1 0 0 1 1 1 1 1 2 2 2 2 2 2 4 7 7 7 7 7 7 6 6 7 8 8 7 6 5 7 11 12 11 10 9 9 8 7 6 4 3 3
1 1 0 0 0 1 1 1 1 2 2 3 3 2 2 3 4 7 9 10 9 9 8 7 7 8 9 8 6 4 4 8 15 16 12 12 12 11 7 6 4 3 2 2
1 1 0 0 0 1 1 1 1 1 2 2 3 3 3 3 5 7 10 10 10 9 9 8 8 9 9 7 5 4 4 7 13 14 10 11 13 10 5 4 3 2 1 1
0 0 0 0 0 0 0 0 0 1 1 2 2 3 3 5 6 7 8 8 9 9 10 10 10 10 8 6 4 4 4 6 9 11 9 8 9 7 4 3 2 1 1 1

GEFSCGP_con_maxscp_348.txt.gz
SCP
0 0 0 0 0 0 0 0 0 0 0 1 1 1 1 1 1 2 2 2 1 1 0 0 1 1 1 1 1 1 1 1 1 0 1 1 1 1 2 2 2 2 1 1
0 0 0 0 0 0 0 0 0 0 0 1 1 1 1 1 2 2 2 2 1 1 1 1 1 1 1 1 1 1 1 1 1 1 1 1 2 2 2 2 2 1 1 1
0 0 0 0 0 0 0 0 0 0 1 1 1 0 1 1 2 3 3 2 2 2 1 1 1 1 1 1 1 1 1 1 1 1 1 2 2 2 2 2 1 1 1 1
0 0 0 0 0 0 0 0 0 0 1 0 0 0 0 1 2 3 3 3 3 2 2 2 2 1 1 1 1 1 1 1 1 1 1 2 2 2 2 1 1 1 1 1
0 0 0 0 0 0 0 0 0 0 0 0 0 0 0 1 2 2 3 3 3 3 3 2 2 1 1 1 1 1 1 1 1 1 1 2 2 2 1 1 1 1 1 1
0 0 0 0 0 0 0 0 0 0 0 0 0 1 1 1 1 1 2 3 3 3 2 2 1 1 1 1 1 1 1 1 1 2 2 2 2 1 1 1 1 1 1 1
0 0 0 0 0 0 0 0 0 0 0 0 0 1 1 1 1 1 2 2 2 2 1 1 1 2 1 1 1 1 1 2 2 2 2 2 1 1 1 1 1 1 1 1
0 0 0 0 0 0 0 0 0 0 0 0 1 2 2 2 1 1 2 2 2 1 1 1 2 2 2 2 2 2 2 2 2 2 2 2 1 1 1 1 2 2 2 1
0 0 0 0 0 0 0 0 0 0 0 0 1 2 2 2 2 2 2 2 2 2 2 3 3 3 2 3 3 3 3 2 2 2 1 1 1 1 1 1 2 2 2 1
0 0 0 0 0 0 0 0 0 0 0 0 1 1 2 2 2 2 2 1 2 2 3 4 4 3 3 3 3 3 2 2 1 1 1 1 1 1 1 1 1 2 2 1
0 0 0 0 0 0 0 0 0 0 0 0 0 1 1 2 2 1 1 1 1 2 3 4 4 3 3 2 2 2 2 1 1 1 2 2 1 1 1 1 1 1 1 1
0 0 0 0 0 0 0 0 0 0 0 0 0 0 1 1 1 1 1 1 2 3 4 5 4 4 3 3 2 2 2 2 2 2 2 2 1 1 1 1 1 1 1 1
0 0 0 0 0 0 0 0 0 0 0 0 0 0 0 1 1 1 2 2 3 5 5 5 5 4 4 3 2 2 3 2 2 3 3 3 1 1 1 1 1 1 1 1
0 0 0 0 0 0 0 0 0 0 0 0 0 0 0 1 1 2 3 4 5 5 5 5 5 5 4 3 3 3 3 3 4 4 4 3 1 1 1 1 1 1 1 1
0 0 0 0 0 0 0 0 0 0 0 0 0 0 0 1 1 2 4 5 5 5 5 5 5 5 4 3 3 4 4 5 5 6 6 3 1 1 1 1 1 1 1 1
0 0 0 0 0 0 0 0 0 0 0 0 0 0 0 1 1 2 4 6 6 5 5 4 4 4 3 2 3 3 5 6 8 8 7 4 2 1 1 1 1 1 1 1
0 0 0 0 0 0 0 0 0 0 0 0 0 0 1 1 1 2 5 8 8 8 6 5 3 2 2 2 2 3 5 8 9 9 6 3 2 1 1 1 1 1 1 1
0 0 0 0 0 0 0 0 0 0 0 0 0 0 1 2 2 3 6 11 13 11 8 4 2 1 1 1 2 2 4 7 8 8 6 3 2 2 2 2 2 2 1 1
0 0 0 0 0 0 0 0 0 0 0 0 0 1 2 3 4 4 7 13 15 12 7 3 1 1 1 1 2 2 3 5 6 6 4 3 2 2 2 2 2 2 1 1
0 0 0 0 0 0 0 0 0 0 0 1 1 1 2 5 5 5 9 14 15 10 5 2 1 1 1 2 2 3 3 4 5 5 4 2 2 2 2 2 2 2 2 2
0 0 0 0 0 0 0 0 1 0 0 1 1 1 3 4 5 6 9 13 12 9 5 2 1 1 1 2 3 3 3 4 5 5 3 2 2 2 2 2 2 2 2 2
0 0 0 0 0 0 0 0 0 0 1 1 1 1 2 3 4 5 8 10 10 8 5 2 1 1 2 2 3 3 3 3 4 4 3 2 2 2 2 2 2 2 2 2
0 0 0 0 0 0 0 0 0 0 1 1 1 1 1 2 3 4 6 7 7 6 3 2 2 2 2 3 3 3 3 3 3 3 2 2 2 2 3 3 2 2 3 3
0 0 0 0 0 0 0 0 0 0 1 1 2 2 1 1 2 3 5 5 6 5 4 4 4 4 3 3 3 4 3 3 3 2 2 2 2 2 2 3 2 3 3 3
0 0 0 0 0 0 0 0 0 0 1 2 2 2 2 1 2 3 4 4 5 6 6 6 6 6 5 3 3 3 3 3 3 2 2 2 2 2 2 2 2 3 3 3
0 0 0 0 0 0 0 0 0 0 1 2 3 3 2 1 1 2 3 3 4 5 6 7 8 7 5 4 3 3 3 3 3 2 2 2 2 2 3 3 2 2 2 2

GEFSCGP_con_maxscp_354.txt.gz
SCP
0 0 0 0 0 0 0 0 0 0 0 0 1 1 1 1 1 1 1 1 1 1 1 1 1 1 1 1 1 1 1 1 1 1 1 1 1 1 1 1 1 1 1 1
0 0 0 0 0 0 0 0 0 0 0 0 1 1 1 1 1 1 2 2 2 2 1 1 1 1 1 1 1 1 1 1 1 1 1 1 1 1 1 1 1 1 1 1
0 0 0 0 0 0 0 0 0 0 0 0 1 1 1 1 1 2 2 2 2 2 2 1 1 1 1 1 1 1 1 1 1 1 1 1 1 1 1 1 1 1 1 1
0 0 0 0 0 0 0 0 0 0 0 0 0 1 1 2 2 2 2 3 3 3 2 2 1 1 1 1 1 1 1 2 2 2 2 2 2 2 1 1 1 1 1 1
0 0 0 0 0 0 0 0 0 0 0 0 0 0 1 2 2 2 2 2 3 3 3 2 1 1 1 1 1 1 2 2 2 3 3 3 3 2 1 1 1 1 1 1
0 0 0 0 0 0 0 0 0 0 0 0 0 0 1 2 2 2 2 2 3 3 3 2 2 1 1 1 2 2 2 2 3 4 4 5 4 2 2 1 1 1 1 1
0 0 0 0 0 0 0 0 0 0 0 0 0 0 1 2 2 2 2 2 2 3 3 3 2 2 2 2 2 3 3 3 3 4 5 5 3 2 2 1 1 1 1 1
0 0 0 0 0 0 0 0 0 0 0 0 0 1 2 2 2 2 2 2 2 3 3 3 3 3 3 3 3 4 4 4 4 5 5 4 3 2 2 1 1 1 1 0
0 0 0 0 0 0 0 0 0 0 0 0 0 1 1 2 2 2 2 3 3 3 3 4 3 3 4 4 5 5 6 6 5 4 4 3 2 2 2 1 1 1 1 1
0 0 0 0 0 0 0 0 0 0 0 0 0 0 1 2 2 2 3 3 3 3 3 4 5 5 6 7 7 7 7 6 6 4 3 2 3 3 2 2 1 1 1 1
0 0 0 0 0 0 0 0 0 0 0 0 0 0 1 1 2 2 3 3 3 3 3 3 4 6 8 9 8 7 6 5 4 3 2 2 2 3 3 2 2 2 1 1
0 0 0 0 0 0 0 0 0 0 0 0 0 0 1 1 2 2 2 2 3 3 3 3 4 5 6 6 6 5 4 3 3 3 2 2 2 3 3 3 2 2 2 1
0 0 0 0 0 0 0 0 0 0 0 0 0 0 1 1 1 1 1 2 3 3 3 4 5 5 5 4 4 3 3 2 2 2 2 2 2 2 3 3 3 2 2 2
0 0 0 0 0 0 0 0 0 0 0 0 0 0 1 1 1 1 1 2 3 3 4 5 6 7 6 4 3 2 2 2 2 2 2 2 2 2 3 4 3 3 2 2
0 0 0 0 0 0 0 0 1 1 1 0 0 1 1 2 2 2 2 2 3 3 4 5 7 7 6 4 3 2 2 2 2 2 2 2 2 3 3 3 3 3 2 2
0 0 0 0 0 0 0 0 1 1 1 1 1 1 2 3 3 2 2 2 3 4 5 6 7 6 5 4 3 3 3 3 2 2 2 2 3 4 4 3 3 3 3 3
0 0 0 0 0 0 0 0 1 1 1 1 1 1 2 2 2 2 2 3 3 4 6 7 7 6 4 3 3 4 4 4 3 2 2 3 3 4 4 3 3 3 3 3
0 0 0 0 0 0 0 0 1 1 1 1 1 1 1 1 1 1 2 2 3 4 6 7 7 6 4 4 4 5 5 4 3 3 3 3 3 4 4 4 4 4 4 4
0 0 0 0 0 0 0 0 1 1 1 1 1 1 1 1 1 1 1 2 3 4 7 9 9 7 6 5 5 6 5 4 3 3 3 3 4 4 4 4 4 5 5 5
0 0 0 0 0 0 0 1 1 1 1 1 2 1 1 1 1 1 2 2 2 4 7 10 11 9 7 7 7 7 5 4 3 3 3 3 4 3 4 4 5 5 5 5
0 1 1 1 0 0 1 1 1 1 1 2 2 2 2 2 2 2 2 3 3 4 7 11 12 10 8 7 7 7 6 4 3 3 3 4 4 4 4 5 5 5 5 5
1 1 1 1 1 1 1 2 2 2 2 2 3 3 3 2 2 2 3 4 5 6 8 11 12 9 7 6 5 6 6 5 4 3 3 4 5 5 7 8 8 7 6 6
1 1 1 1 1 1 1 1 1 2 3 3 3 3 3 3 3 3 4 5 6 7 8 11 10 7 6 6 5 6 6 5 4 4 4 4 6 7 8 9 9 8 8 8
1 1 1 1 1 1 1 1 1 1 2 3 3 3 3 4 4 4 4 4 5 6 7 8 7 6 5 6 6 6 6 5 4 4 3 4 5 6 6 8 7 6 7 7
1 2 2 1 1 1 0 0 1 1 2 3 3 2 2 3 3 4 3 3 4 5 5 5 5 5 4 5 6 6 7 7 6 5 4 3 3 4 4 5 5 4 4 5
1 2 2 2 1 1 1 0 1 1 3 3 3 3 2 2 2 3 3 3 4 5 5 4 4 4 4 4 5 6 7 8 9 7 4 3 2 3 3 4 4 3 3 3